MDT4 SLTJ-SPZO

Flight info

Callsign MDT4
Flight time 1h 35m
Altitude 40000
Route SINIT UW6 PAZ UM657 JUL UV11 ILMOX
Aircraft C750/M-SBDE3FGHJ3RWXYZ/SB1

Departure

Time 2026-05-01 10:39
Airport Capitan Oriel Lea Plaza Airport (SLTJ)

Arrival

Time 2026-05-01 12:14
Airport Alejandro Velasco Astete International Airport (SPZO)
Time Latitude Longitude Altitude Speed Heading
2026-05-01 10:22 -21.54818 -64.70875 6099 ft 0 kts 223°
2026-05-01 10:33 -21.54836 -64.70891 6097 ft 6 kts 212°
2026-05-01 10:33 -21.54801 -64.71005 6101 ft 14 kts 289°
2026-05-01 10:34 -21.54813 -64.71096 6106 ft 11 kts 260°
2026-05-01 10:34 -21.54816 -64.71115 6106 ft 0 kts 259°
2026-05-01 10:35 -21.54826 -64.71174 6105 ft 13 kts 259°
2026-05-01 10:35 -21.54863 -64.71207 6106 ft 3 kts 127°
2026-05-01 10:35 -21.54864 -64.71205 6107 ft 0 kts 125°
2026-05-01 10:38 -21.54938 -64.71091 6106 ft 62 kts 124°
2026-05-01 10:39 -21.55377 -64.70405 6091 ft 148 kts 124°
2026-05-01 10:39 -21.56015 -64.69400 6413 ft 170 kts 124°
2026-05-01 10:39 -21.56732 -64.68312 7023 ft 181 kts 125°
2026-05-01 10:39 -21.57477 -64.67193 7483 ft 185 kts 126°
2026-05-01 10:40 -21.58259 -64.66050 7813 ft 198 kts 126°
2026-05-01 10:40 -21.59057 -64.64792 8453 ft 204 kts 120°
2026-05-01 10:40 -21.59790 -64.63486 9259 ft 206 kts 121°
2026-05-01 10:40 -21.60602 -64.62180 9948 ft 213 kts 123°
2026-05-01 10:41 -21.61556 -64.60962 10448 ft 224 kts 144°
2026-05-01 10:41 -21.63047 -64.60610 11047 ft 223 kts 193°
2026-05-01 10:41 -21.64604 -64.62952 12339 ft 204 kts 279°
2026-05-01 10:42 -21.64396 -64.64451 13054 ft 203 kts 278°
2026-05-01 10:42 -21.64403 -64.65989 13685 ft 208 kts 270°
2026-05-01 10:42 -21.64167 -64.67545 14192 ft 208 kts 298°
2026-05-01 10:42 -21.63279 -64.68711 14791 ft 206 kts 322°
2026-05-01 10:43 -21.61971 -64.69319 15552 ft 210 kts 343°
2026-05-01 10:43 -21.60554 -64.69700 16321 ft 211 kts 343°
2026-05-01 10:43 -21.59122 -64.70092 17047 ft 214 kts 343°
2026-05-01 10:43 -21.57631 -64.70492 17541 ft 231 kts 343°
2026-05-01 10:44 -21.55979 -64.70933 17796 ft 258 kts 344°
2026-05-01 10:44 -21.54202 -64.71584 17928 ft 284 kts 329°
2026-05-01 10:44 -21.52471 -64.72805 18074 ft 311 kts 325°
2026-05-01 10:44 -21.50597 -64.74156 18203 ft 337 kts 326°
2026-05-01 10:45 -21.48558 -64.75576 18258 ft 362 kts 326°
2026-05-01 10:45 -21.46402 -64.77068 18356 ft 383 kts 326°
2026-05-01 10:45 -21.44161 -64.78642 18998 ft 385 kts 326°
2026-05-01 10:45 -21.41919 -64.80221 19665 ft 387 kts 326°
2026-05-01 10:46 -21.39654 -64.81806 20280 ft 391 kts 326°
2026-05-01 10:46 -21.37356 -64.83410 20915 ft 394 kts 326°
2026-05-01 10:46 -21.35054 -64.85022 21610 ft 397 kts 325°
2026-05-01 10:46 -21.32735 -64.86646 22250 ft 400 kts 325°
2026-05-01 10:47 -21.30396 -64.88282 22956 ft 402 kts 325°
2026-05-01 10:47 -21.28044 -64.89925 23654 ft 405 kts 325°
2026-05-01 10:47 -21.25671 -64.91582 24190 ft 408 kts 325°
2026-05-01 10:47 -21.23286 -64.93249 24791 ft 410 kts 325°
2026-05-01 10:48 -21.20891 -64.94922 25386 ft 413 kts 325°
2026-05-01 10:48 -21.18479 -64.96605 25992 ft 415 kts 325°
2026-05-01 10:48 -21.16083 -64.98275 26589 ft 417 kts 325°
2026-05-01 10:48 -21.13642 -64.99978 27172 ft 419 kts 325°
2026-05-01 10:49 -21.11192 -65.01689 27717 ft 422 kts 325°
2026-05-01 10:49 -21.08727 -65.03430 28272 ft 425 kts 324°
2026-05-01 10:49 -21.06259 -65.05182 28846 ft 427 kts 324°
2026-05-01 10:49 -21.03771 -65.06935 29395 ft 430 kts 324°
2026-05-01 10:50 -21.01264 -65.08694 29930 ft 431 kts 325°
2026-05-01 10:50 -20.98749 -65.10464 30373 ft 435 kts 324°
2026-05-01 10:50 -20.96219 -65.12249 30835 ft 437 kts 324°
2026-05-01 10:50 -20.93678 -65.14037 31358 ft 435 kts 324°
2026-05-01 10:51 -20.91163 -65.15802 32061 ft 431 kts 324°
2026-05-01 10:51 -20.88701 -65.17533 32712 ft 428 kts 324°
2026-05-01 10:51 -20.86222 -65.19276 33328 ft 425 kts 324°
2026-05-01 10:51 -20.83755 -65.21009 34022 ft 422 kts 324°
2026-05-01 10:52 -20.81314 -65.22722 34661 ft 418 kts 324°
2026-05-01 10:52 -20.78896 -65.24419 35325 ft 415 kts 324°
2026-05-01 10:52 -20.76489 -65.26109 36037 ft 412 kts 324°
2026-05-01 10:52 -20.74103 -65.27783 36720 ft 408 kts 324°
2026-05-01 10:53 -20.71738 -65.29439 37445 ft 403 kts 324°
2026-05-01 10:53 -20.69411 -65.31069 38162 ft 398 kts 324°
2026-05-01 10:53 -20.67135 -65.32665 38768 ft 396 kts 324°
2026-05-01 10:53 -20.64833 -65.34278 39289 ft 394 kts 324°
2026-05-01 10:54 -20.62552 -65.35874 39824 ft 391 kts 324°
2026-05-01 10:54 -20.60272 -65.37470 40119 ft 396 kts 324°
2026-05-01 10:54 -20.57937 -65.39106 40121 ft 407 kts 324°
2026-05-01 10:55 -20.53080 -65.42502 40132 ft 428 kts 324°
2026-05-01 10:55 -20.47990 -65.46057 40134 ft 447 kts 324°
2026-05-01 10:56 -20.42749 -65.49713 40140 ft 450 kts 324°
2026-05-01 10:56 -20.37535 -65.53350 40136 ft 451 kts 324°
2026-05-01 10:57 -20.32285 -65.57008 40137 ft 451 kts 324°
2026-05-01 10:57 -20.27028 -65.60669 40137 ft 452 kts 324°
2026-05-01 10:58 -20.21769 -65.64327 40119 ft 451 kts 324°
2026-05-01 10:58 -20.16511 -65.67983 40129 ft 451 kts 324°
2026-05-01 10:59 -20.11290 -65.71609 40128 ft 451 kts 324°
2026-05-01 10:59 -20.06034 -65.75256 40142 ft 451 kts 324°
2026-05-01 11:00 -20.00779 -65.78909 40137 ft 451 kts 324°
2026-05-01 11:00 -19.95540 -65.82590 40138 ft 452 kts 324°
2026-05-01 11:01 -19.90288 -65.86255 40148 ft 451 kts 324°
2026-05-01 11:01 -19.85046 -65.89921 40153 ft 451 kts 324°
2026-05-01 11:02 -19.79841 -65.93555 40173 ft 451 kts 324°
2026-05-01 11:02 -19.74614 -65.97200 40177 ft 448 kts 324°
2026-05-01 11:03 -19.69364 -66.00881 40202 ft 453 kts 324°
2026-05-01 11:03 -19.64108 -66.04557 40199 ft 452 kts 324°
2026-05-01 11:04 -19.58858 -66.08230 40214 ft 452 kts 324°
2026-05-01 11:04 -19.53643 -66.11873 40215 ft 452 kts 324°
2026-05-01 11:05 -19.48389 -66.15546 40220 ft 453 kts 324°
2026-05-01 11:05 -19.43133 -66.19224 40228 ft 453 kts 324°
2026-05-01 11:06 -19.37872 -66.22909 40236 ft 453 kts 324°
2026-05-01 11:06 -19.32637 -66.26652 40261 ft 454 kts 324°
2026-05-01 11:07 -19.24798 -66.32192 40270 ft 453 kts 324°
2026-05-01 11:07 -19.19565 -66.35905 40263 ft 453 kts 324°
2026-05-01 11:08 -19.14327 -66.39606 40249 ft 454 kts 324°
2026-05-01 11:09 -19.06454 -66.45172 40258 ft 453 kts 324°
2026-05-01 11:09 -19.01208 -66.48876 40260 ft 454 kts 324°
2026-05-01 11:10 -18.93368 -66.54407 40251 ft 453 kts 324°
2026-05-01 11:10 -18.88118 -66.58107 40259 ft 456 kts 324°
2026-05-01 11:11 -18.82835 -66.61827 40261 ft 455 kts 324°
2026-05-01 11:11 -18.77566 -66.65534 40254 ft 454 kts 324°
2026-05-01 11:12 -18.72339 -66.69210 40259 ft 455 kts 324°
2026-05-01 11:12 -18.67068 -66.72913 40264 ft 455 kts 325°
2026-05-01 11:13 -18.61795 -66.76615 40242 ft 455 kts 325°
2026-05-01 11:13 -18.56516 -66.80318 40258 ft 457 kts 325°
2026-05-01 11:14 -18.51225 -66.84026 40269 ft 457 kts 325°
2026-05-01 11:14 -18.45936 -66.87732 40262 ft 457 kts 325°
2026-05-01 11:15 -18.40682 -66.91409 40282 ft 456 kts 325°
2026-05-01 11:15 -18.35403 -66.95102 40280 ft 456 kts 325°
2026-05-01 11:16 -18.30119 -66.98795 40275 ft 458 kts 325°
2026-05-01 11:16 -18.24809 -67.02502 40342 ft 458 kts 325°
2026-05-01 11:17 -18.19497 -67.06209 40402 ft 458 kts 325°
2026-05-01 11:17 -18.14183 -67.09915 40451 ft 458 kts 325°
2026-05-01 11:18 -18.08872 -67.13616 40500 ft 458 kts 325°
2026-05-01 11:18 -18.03591 -67.17293 40509 ft 458 kts 325°
2026-05-01 11:19 -17.98240 -67.21017 40516 ft 464 kts 325°
2026-05-01 11:19 -17.92866 -67.24752 40487 ft 462 kts 326°
2026-05-01 11:20 -17.87508 -67.28475 40432 ft 462 kts 326°
2026-05-01 11:20 -17.82185 -67.32171 40366 ft 462 kts 325°
2026-05-01 11:21 -17.76815 -67.35896 40303 ft 462 kts 326°
2026-05-01 11:21 -17.71443 -67.39620 40250 ft 465 kts 326°
2026-05-01 11:22 -17.66032 -67.43368 40245 ft 466 kts 326°
2026-05-01 11:22 -17.60627 -67.47110 40246 ft 465 kts 326°
2026-05-01 11:23 -17.55259 -67.50823 40247 ft 466 kts 326°
2026-05-01 11:23 -17.49854 -67.54559 40246 ft 466 kts 326°
2026-05-01 11:24 -17.44461 -67.58284 40247 ft 463 kts 326°
2026-05-01 11:25 -17.36400 -67.63847 40249 ft 463 kts 326°
2026-05-01 11:25 -17.28364 -67.69387 40233 ft 463 kts 326°
2026-05-01 11:26 -17.20295 -67.75053 40238 ft 463 kts 325°
2026-05-01 11:27 -17.14938 -67.78798 40228 ft 463 kts 326°
2026-05-01 11:27 -17.09585 -67.82558 40217 ft 468 kts 325°
2026-05-01 11:28 -17.04193 -67.86333 40215 ft 465 kts 326°
2026-05-01 11:28 -16.98819 -67.90098 40219 ft 465 kts 325°
2026-05-01 11:29 -16.90738 -67.95750 40217 ft 466 kts 326°
2026-05-01 11:30 -16.82681 -68.01382 40229 ft 468 kts 326°
2026-05-01 11:30 -16.77236 -68.05183 40344 ft 471 kts 326°
2026-05-01 11:31 -16.71794 -68.08981 40460 ft 470 kts 326°
2026-05-01 11:31 -16.66357 -68.12773 40574 ft 470 kts 326°
2026-05-01 11:32 -16.60916 -68.16564 40687 ft 470 kts 326°
2026-05-01 11:32 -16.55470 -68.20373 40699 ft 469 kts 324°
2026-05-01 11:33 -16.50722 -68.25015 40687 ft 474 kts 310°
2026-05-01 11:33 -16.47158 -68.30787 40646 ft 475 kts 301°
2026-05-01 11:34 -16.43898 -68.36776 40543 ft 475 kts 302°
2026-05-01 11:34 -16.40641 -68.42775 40429 ft 476 kts 301°
2026-05-01 11:34 -16.39018 -68.45770 40237 ft 475 kts 301°
2026-05-01 11:35 -16.37386 -68.48765 40218 ft 475 kts 301°
2026-05-01 11:35 -16.34123 -68.54756 40218 ft 475 kts 302°
2026-05-01 11:36 -16.31425 -68.59716 40211 ft 473 kts 302°
2026-05-01 11:36 -16.28170 -68.65681 40210 ft 474 kts 302°
2026-05-01 11:37 -16.24909 -68.71663 40203 ft 479 kts 301°
2026-05-01 11:37 -16.21624 -68.77681 40199 ft 478 kts 301°
2026-05-01 11:38 -16.18342 -68.83684 40199 ft 477 kts 302°
2026-05-01 11:38 -16.15084 -68.89644 40193 ft 477 kts 302°
2026-05-01 11:39 -16.11806 -68.95630 40192 ft 476 kts 302°
2026-05-01 11:39 -16.08530 -69.01611 40189 ft 476 kts 302°
2026-05-01 11:40 -16.05248 -69.07599 40186 ft 476 kts 302°
2026-05-01 11:40 -16.01965 -69.13579 40178 ft 476 kts 302°
2026-05-01 11:41 -15.98684 -69.19554 40190 ft 476 kts 302°
2026-05-01 11:41 -15.95410 -69.25513 40183 ft 477 kts 302°
2026-05-01 11:42 -15.92121 -69.31490 40176 ft 477 kts 302°
2026-05-01 11:42 -15.88891 -69.37505 40176 ft 477 kts 301°
2026-05-01 11:43 -15.85644 -69.43516 40169 ft 477 kts 302°
2026-05-01 11:43 -15.82398 -69.49520 40169 ft 477 kts 301°
2026-05-01 11:44 -15.77534 -69.58515 40167 ft 474 kts 301°
2026-05-01 11:44 -15.74327 -69.64443 40163 ft 474 kts 301°
2026-05-01 11:45 -15.71096 -69.70404 40149 ft 475 kts 301°
2026-05-01 11:45 -15.67837 -69.76414 40160 ft 479 kts 301°
2026-05-01 11:46 -15.64575 -69.82428 40157 ft 478 kts 301°
2026-05-01 11:46 -15.61311 -69.88433 40165 ft 477 kts 301°
2026-05-01 11:47 -15.58086 -69.94369 40162 ft 475 kts 301°
2026-05-01 11:47 -15.54837 -70.00339 40162 ft 475 kts 301°
2026-05-01 11:48 -15.51586 -70.06311 40162 ft 476 kts 301°
2026-05-01 11:48 -15.48276 -70.12246 40603 ft 474 kts 305°
2026-05-01 11:49 -15.43932 -70.17335 40606 ft 472 kts 319°
2026-05-01 11:49 -15.38783 -70.21482 40613 ft 473 kts 322°
2026-05-01 11:50 -15.33579 -70.25648 40508 ft 472 kts 322°
2026-05-01 11:50 -15.28365 -70.29789 40400 ft 473 kts 322°
2026-05-01 11:51 -15.25763 -70.31862 40184 ft 473 kts 322°
2026-05-01 11:51 -15.23159 -70.33939 40196 ft 472 kts 322°
2026-05-01 11:51 -15.17944 -70.38083 40195 ft 473 kts 322°
2026-05-01 11:52 -15.12751 -70.42213 40201 ft 474 kts 322°
2026-05-01 11:52 -15.07512 -70.46373 40186 ft 476 kts 323°
2026-05-01 11:53 -15.02262 -70.50542 40192 ft 476 kts 323°
2026-05-01 11:53 -14.97011 -70.54708 40193 ft 476 kts 323°
2026-05-01 11:54 -14.91767 -70.58865 40193 ft 475 kts 323°
2026-05-01 11:54 -14.86556 -70.62995 40193 ft 475 kts 323°
2026-05-01 11:55 -14.83966 -70.65046 39713 ft 463 kts 323°
2026-05-01 11:55 -14.81454 -70.67037 39112 ft 447 kts 323°
2026-05-01 11:55 -14.79037 -70.68950 38486 ft 430 kts 323°
2026-05-01 11:55 -14.76704 -70.70795 37935 ft 415 kts 323°
2026-05-01 11:56 -14.74431 -70.72591 37391 ft 408 kts 323°
2026-05-01 11:56 -14.72183 -70.74369 36861 ft 409 kts 323°
2026-05-01 11:56 -14.69895 -70.76177 36322 ft 419 kts 323°
2026-05-01 11:56 -14.67556 -70.78026 35770 ft 428 kts 323°
2026-05-01 11:57 -14.65208 -70.79882 35207 ft 433 kts 323°
2026-05-01 11:57 -14.62810 -70.81778 34637 ft 436 kts 323°
2026-05-01 11:57 -14.60393 -70.83686 33999 ft 438 kts 322°
2026-05-01 11:57 -14.57939 -70.85623 32884 ft 448 kts 322°
2026-05-01 11:58 -14.55484 -70.87562 32303 ft 443 kts 322°
2026-05-01 11:58 -14.53035 -70.89498 31731 ft 445 kts 322°
2026-05-01 11:58 -14.48083 -70.93406 30551 ft 453 kts 322°
2026-05-01 11:59 -14.45575 -70.95385 29906 ft 453 kts 322°
2026-05-01 11:59 -14.43118 -70.97322 29319 ft 448 kts 322°
2026-05-01 11:59 -14.40653 -70.99265 28743 ft 445 kts 322°
2026-05-01 12:00 -14.35755 -71.03126 27560 ft 441 kts 322°
2026-05-01 12:00 -14.33321 -71.05044 26974 ft 440 kts 322°
2026-05-01 12:00 -14.28483 -71.08854 25830 ft 436 kts 322°
2026-05-01 12:01 -14.26078 -71.10746 25255 ft 434 kts 322°
2026-05-01 12:01 -14.23682 -71.12631 24686 ft 432 kts 322°
2026-05-01 12:01 -14.21296 -71.14509 24120 ft 431 kts 322°
2026-05-01 12:01 -14.18945 -71.16358 23515 ft 430 kts 322°
2026-05-01 12:02 -14.16582 -71.18216 22949 ft 425 kts 322°
2026-05-01 12:02 -14.14235 -71.20062 22393 ft 424 kts 322°
2026-05-01 12:02 -14.11894 -71.21901 21835 ft 421 kts 323°
2026-05-01 12:02 -14.09574 -71.23723 21282 ft 418 kts 323°
2026-05-01 12:03 -14.07268 -71.25535 20739 ft 414 kts 323°
2026-05-01 12:03 -14.05063 -71.27267 20654 ft 384 kts 323°
2026-05-01 12:03 -14.02977 -71.28906 20666 ft 375 kts 323°
2026-05-01 12:03 -14.00879 -71.30551 20658 ft 383 kts 323°
2026-05-01 12:04 -13.98759 -71.32214 20661 ft 384 kts 323°
2026-05-01 12:04 -13.96670 -71.33856 20666 ft 385 kts 323°
2026-05-01 12:04 -13.94532 -71.35533 20668 ft 385 kts 323°
2026-05-01 12:04 -13.92399 -71.37203 20668 ft 386 kts 323°
2026-05-01 12:05 -13.90256 -71.38884 20661 ft 395 kts 323°
2026-05-01 12:05 -13.86074 -71.42166 20574 ft 351 kts 323°
2026-05-01 12:05 -13.84178 -71.43650 20447 ft 337 kts 323°
2026-05-01 12:06 -13.82322 -71.45104 20305 ft 337 kts 323°
2026-05-01 12:06 -13.80442 -71.46577 20181 ft 337 kts 323°
2026-05-01 12:06 -13.78675 -71.47962 20054 ft 316 kts 323°
2026-05-01 12:06 -13.76949 -71.49314 19897 ft 309 kts 323°
2026-05-01 12:07 -13.75254 -71.50641 19673 ft 300 kts 323°
2026-05-01 12:07 -13.73717 -71.51945 18316 ft 291 kts 317°
2026-05-01 12:07 -13.72288 -71.53674 16805 ft 338 kts 307°
2026-05-01 12:07 -13.71098 -71.55756 16354 ft 330 kts 297°
2026-05-01 12:08 -13.70277 -71.57902 16342 ft 318 kts 290°
2026-05-01 12:08 -13.69523 -71.60082 16173 ft 328 kts 291°
2026-05-01 12:08 -13.68742 -71.62277 15880 ft 327 kts 291°
2026-05-01 12:08 -13.67815 -71.64409 15553 ft 326 kts 298°
2026-05-01 12:09 -13.66667 -71.66399 15233 ft 322 kts 304°
2026-05-01 12:09 -13.65327 -71.68219 14943 ft 318 kts 311°
2026-05-01 12:09 -13.63837 -71.69867 14639 ft 305 kts 314°
2026-05-01 12:09 -13.62423 -71.71371 14335 ft 281 kts 314°
2026-05-01 12:10 -13.61138 -71.72787 14052 ft 262 kts 311°
2026-05-01 12:10 -13.59279 -71.75845 13641 ft 253 kts 295°
2026-05-01 12:10 -13.58606 -71.77550 13378 ft 257 kts 292°
2026-05-01 12:11 -13.57337 -71.80713 12793 ft 217 kts 293°
2026-05-01 12:11 -13.56829 -71.82069 12582 ft 189 kts 288°
2026-05-01 12:11 -13.56421 -71.83351 12391 ft 193 kts 290°
2026-05-01 12:12 -13.55964 -71.84660 12161 ft 186 kts 290°
2026-05-01 12:12 -13.55509 -71.85788 11950 ft 163 kts 297°
2026-05-01 12:12 -13.54970 -71.86751 11697 ft 150 kts 303°
2026-05-01 12:12 -13.54451 -71.87635 11530 ft 141 kts 297°
2026-05-01 12:13 -13.54146 -71.88602 11317 ft 143 kts 285°
2026-05-01 12:13 -13.54012 -71.89630 11141 ft 148 kts 276°
2026-05-01 12:13 -13.53902 -71.90704 10935 ft 150 kts 277°
2026-05-01 12:13 -13.53792 -71.91752 10798 ft 149 kts 277°
2026-05-01 12:14 -13.53685 -71.92800 10721 ft 142 kts 276°
2026-05-01 12:14 -13.53593 -71.93700 10758 ft 108 kts 276°
2026-05-01 12:14 -13.53539 -71.94289 10791 ft 59 kts 276°
2026-05-01 12:14 -13.53486 -71.94602 10808 ft 22 kts 275°
2026-05-01 12:15 -13.53508 -71.94604 10808 ft 11 kts 91°
2026-05-01 12:15 -13.53514 -71.94473 10800 ft 25 kts 96°
2026-05-01 12:15 -13.53557 -71.94335 10792 ft 13 kts 185°
2026-05-01 12:15 -13.53648 -71.94353 10790 ft 12 kts 216°
2026-05-01 12:16 -13.53657 -71.94416 10794 ft 8 kts 274°
2026-05-01 12:16 -13.53667 -71.94451 10797 ft 3 kts 208°
2026-05-01 12:16 -13.53696 -71.94482 10797 ft 9 kts 262°
2026-05-01 12:16 -13.53701 -71.94509 10799 ft 0 kts 261°